This demonstration page uses our WeatherBlox Daily Observations layout. Learn more.

Left ArrowRight Arrow

Hourly Observations for January 21, 2020

Temp ( °F °C ) Dew Point ( °F °C ) Humidity (%) Winds ( mph kmh ) Pressure ( in mb ) Visibility ( mi km ) Precip ( " mm )
12:53 am 00:53 Clear 4 -15.6 0 -17.8 83 83 S 8 13 30.62 1037 10 16 0.00 0.00
1:53 am 01:53 Clear 5 -15 0 -17.8 79 79 SSE 7 11 30.59 1036 10 16 0.00 0.00
2:53 am 02:53 Clear 3 -16.1 -1 -18.3 83 83 S 7 11 30.59 1036 10 16 0.00 0.00
3:53 am 03:53 Clear 4 -15.6 0 -17.8 83 83 S 7 11 30.56 1035 10 16 0.00 0.00
4:53 am 04:53 Clear 5 -15 1 -17.2 83 83 S 6 9 30.53 1034 10 16 0.00 0.00
5:53 am 05:53 Clear 6 -14.4 2 -16.7 83 83 S 7 11 30.52 1034 10 16 0.00 0.00
6:53 am 06:53 Clear 6 -14.4 3 -16.1 87 87 S 7 11 30.49 1032 10 16 0.00 0.00
7:53 am 07:53 Sunny 8 -13.3 4 -15.6 83 83 S 8 13 30.48 1032 10 16 0.00 0.00
8:53 am 08:53 Sunny 10 -12.2 6 -14.4 84 84 S 10 17 30.45 1031 10 16 0.00 0.00
9:53 am 09:53 Sunny 14 -10 8 -13.3 77 77 S 13 20 30.42 1030 10 16 0.00 0.00
10:53 am 10:53 Sunny 19 -7.2 12 -11.1 74 74 S 14 22 30.40 1030 10 16 0.00 0.00
11:53 am 11:53 Sunny 22 -5.6 15 -9.4 75 75 S 15 24 30.35 1028 10 16 0.00 0.00
12:53 pm 12:53 Sunny 26 -3.3 18 -7.8 71 71 S 17 28 30.27 1025 10 16 0.00 0.00
1:53 pm 13:53 Sunny 28 -2.2 20 -6.7 72 72 S 15 24 30.22 1023 10 16 0.00 0.00
2:53 pm 14:53 Sunny 28 -2.2 20 -6.7 72 72 S 16 26 30.19 1022 10 16 0.00 0.00
3:53 pm 15:53 Sunny 30 -1.1 21 -6.1 69 69 S 14 22 30.15 1021 10 16 0.00 0.00
4:53 pm 16:53 Sunny 30 -1.1 21 -6.1 69 69 S 16 26 30.13 1020 10 16 0.00 0.00
5:53 pm 17:53 Partly Cloudy 31 -0.6 22 -5.6 69 69 S 13 20 30.12 1020 10 16 0.00 0.00
6:53 pm 18:53 Cloudy with Light Freezing Rain 32 0 25 -3.9 75 75 S 13 20 30.10 1019 7 11 0.00 0.00
7:39 pm 19:39 Cloudy with Freezing Rain 32 0 28 -2.2 85 85 S 17 28 30.10 1019 4 6 0.05 1.27
7:53 pm 19:53 Cloudy with Freezing Rain 32 0 28 -2.2 85 85 S 17 28 30.09 1019 3 5 0.08 2.03
8:06 pm 20:06 Cloudy with Light Freezing Rain 32 0 28 -2.2 85 85 S 16 26 30.09 1019 4 6 0.02 0.51
8:53 pm 20:53 Cloudy with Light Freezing Rain 32 0 29 -1.7 88 88 S 18 30 30.06 1018 4 6 0.09 2.29
9:53 pm 21:53 Cloudy with Light Freezing Rain 33 0.6 30 -1.1 89 89 S 18 30 30.03 1017 4 6 0.07 1.78
10:42 pm 22:42 Cloudy with Light Rain 34 1 30 -1 87 87 S 17 28 30.03 1017 4 6 0.00 0.00
10:53 pm 22:53 Cloudy with Light Rain 33 0.6 30 -1.1 89 89 S 15 24 30.01 1016 4 6 0.06 1.52
11:03 pm 23:03 Cloudy with Light Rain 34 1 30 -1 87 87 S 16 26 30.02 1016 4 6 0.00 0.00
11:07 pm 23:07 Cloudy with Light Freezing Rain 33 0.6 31 -0.6 92 92 S 14 22 30.02 1017 4 6 0.00 0.00
11:53 pm 23:53 Cloudy with Light Snow 33 0.6 31 -0.6 92 92 S 10 17 29.99 1016 3 5 0.02 0.51

Powered by AerisWeather